sat.trackr.live / text

‹ back to catalog

STARLINK-36931

NORAD 68000 · 2026-039Q

PAYLOAD ACTIVE UNKNOWN

§ Identity

Operator
Country
US
Launch date
2026-02-27
Launch site
AFETR
Launch vehicle
Mass (kg)
RCS (m²)

Purposes: comms

External: N2YO · Heavens-Above · Gunter

§ Orbital elements

Epoch: 2026-05-24T23:08:56.134176Z

Period
94.27 min
Inclination
43.0038°
Eccentricity
0.0002073
Mean motion
15.27589661 rev/d
Perigee alt
481.6 km
Apogee alt
484.4 km
Semi-major
6,861.2 km
B*
1.0778e-3
RAAN
337.7351°
Arg perigee
259.0456°
Mean anomaly
101.0162°
Rev number
1,337

§ Raw data

STARLINK-369311 68000U 26039Q   26144.96453859  .00029525  00000+0  10778-2 0  99972 68000  43.0038 337.7351 0002073 259.0456 101.0162 15.27589661 13371

JSON: /api/v1/satellites/68000 · /tle

For live sub-satellite position, see the globe view (requires WebGL).

§ Visibility from observer

Set your observer location to see the next 7 days of passes ≥ 10°. The values pass through the URL so the page stays shareable.

No JS? Fill the form by hand. The geolocation button needs JavaScript.